Location: Croissy-Beaubourg
(48.8283°N, 2.6696°E)
Time: 22:03:28
(UTC+00:00)

Cosmos 2082 - Pass Details

Date: 26 August 2022
Orbit: 832 x 856 km, 71.0° (Epoch: 28 September)

Event Time Altitude Azimuth Distance (km) Brightness Sun altitude
Rises 03:10:11 0° 320° (NW) 3,417 6.9 -16.4°
Reaches altitude 10° 03:13:18 10° 303° (WNW) 2,481 5.9 -16.0°
Enters shadow 03:16:58 19° 263° (W) 1,922 5.1 -15.5°
